Date,TemperatureHighF,TemperatureAvgF,TemperatureLowF,DewpointHighF,DewpointAvgF,DewpointLowF,HumidityHigh,HumidityAvg,HumidityLow,PressureMaxIn,PressureMinIn,WindSpeedMaxMPH,WindSpeedAvgMPH,GustSpeedMaxMPH,PrecipitationSumIn
2013-2-1,46.0,37.6,33.0,40.0,31.7,26.0,100,80,46,27.32,27.06,19,2,19,0.02
2013-2-2,49.0,33.2,23.0,32.0,26.5,23.0,100,78,43,27.46,27.23,9,1,9,0.01
2013-2-3,46.0,30.1,19.0,32.0,26.2,21.0,100,85,52,27.27,26.96,7,1,7,0.00
2013-2-4,47.0,37.9,31.0,33.0,30.2,28.0,93,74,51,27.02,26.91,14,3,14,0.00
2013-2-5,45.0,37.3,31.0,36.0,31.8,24.0,94,80,53,26.97,26.71,11,2,12,0.00
2013-2-6,44.0,35.7,25.0,33.0,28.8,23.0,99,77,47,27.08,26.85,15,2,15,0.02
2013-2-7,39.0,29.8,22.0,28.0,25.3,23.0,100,84,60,27.07,26.86,7,1,7,0.00
2013-2-8,43.0,32.8,26.0,32.0,28.3,24.0,100,83,62,27.01,26.89,14,2,14,0.00
2013-2-9,34.0,30.4,26.0,31.0,25.7,23.0,100,82,64,27.09,26.91,12,2,12,0.01
2013-2-10,41.0,28.7,22.0,29.0,23.4,18.0,100,81,42,27.19,27.05,20,2,20,0.03
2013-2-11,35.0,27.6,20.0,26.0,22.3,18.0,100,79,60,27.16,27.05,7,1,7,0.00
2013-2-12,40.0,34.2,30.0,33.0,28.3,24.0,93,78,63,27.16,27.03,12,1,12,0.01
2013-2-13,42.0,38.5,31.0,36.0,32.1,28.0,100,77,63,27.20,26.97,18,4,20,0.07
2013-2-14,42.0,34.4,24.0,31.0,27.1,21.0,100,76,42,27.36,27.20,15,2,15,0.00
2013-2-15,49.0,37.4,26.0,31.0,28.4,26.0,100,71,48,27.40,27.23,9,1,9,0.00
2013-2-16,42.0,32.5,21.0,36.0,28.9,21.0,100,87,64,27.29,26.78,16,2,17,0.05
2013-2-17,37.0,32.6,29.0,33.0,30.2,28.0,100,91,75,27.06,26.85,17,2,17,0.07
2013-2-18,43.0,33.4,26.0,33.0,25.2,18.0,100,74,37,27.08,26.80,14,2,14,0.02
2013-2-19,43.0,32.7,24.0,29.0,24.9,18.0,98,74,39,26.81,26.60,11,2,12,0.00
2013-2-20,39.0,32.2,27.0,33.0,25.3,18.0,100,76,47,26.94,26.78,16,2,16,0.02
2013-2-21,40.0,27.9,16.0,28.0,21.2,16.0,100,76,41,27.09,26.88,10,2,10,0.00
2013-2-22,44.0,35.4,26.0,29.0,26.0,21.0,100,71,41,26.98,26.60,23,3,23,0.00
2013-2-23,40.0,32.0,23.0,32.0,23.5,16.0,100,70,46,27.16,26.59,23,4,23,0.03
2013-2-24,40.0,30.1,23.0,24.0,21.8,18.0,90,70,42,27.21,27.11,17,2,17,0.00
2013-2-25,45.0,33.5,26.0,28.0,22.5,18.0,90,63,40,27.13,26.81,18,3,18,0.00
2013-2-26,38.0,32.3,24.0,31.0,24.1,16.0,98,73,42,27.27,27.00,15,2,15,0.00
2013-2-27,42.0,29.9,22.0,24.0,21.0,18.0,94,70,42,27.29,27.13,16,2,16,0.00
2013-2-28,45.0,35.2,25.0,35.0,29.9,23.0,99,81,60,27.29,27.17,9,2,9,0.03